Regional Weather Roundup
Issued by NWS Jackson, KY

Home | Current Version | Previous Version | Text Only | Print | Product List | Glossary On
Versions: 1 2 3 4 5 6 7 8 9 10 11 12 13 14 15 16 17 18 19 20 21 22 23 24 25 26 27 28 29 30 31 32 33 34 35 36 37 38 39 40 41 42 43 44 45 46 47 48
000
ASUS43 KJKL 032210
RWRJKL

EAST KENTUCKY HOURLY WEATHER ROUNDUP
NATIONAL WEATHER SERVICE JACKSON KY
500 PM EST TUE MAR 03 2015

NOTE: "FAIR" INDICATES FEW OR NO CLOUDS BELOW 12,000 FEET WITH
NO SIGNIFICANT WEATHER AND/OR OBSTRUCTIONS TO VISIBILITY.

* THESE REPORTS ARE NOT UNDER NWS QUALITY CONTROL AND MAY NOT
  REPORT WEATHER SUCH AS PRECIPITATION AND FOG.

KYZ079-080-083-085-087-088-110-112-115-119-120-032300
...EASTERN KENTUCKY...

CITY           SKY/WX    TMP DP  RH WIND       PRES   REMARKS
JACKSON        CLOUDY    61  53  75 VRB7G18   29.90F
LONDON         CLOUDY    61  51  70 S8G17     29.93F
SOMERSET*      CLOUDY    55  52  88 S7        29.94F
MONTICELLO*    CLOUDY    64  58  81 SW21      29.96F
MIDDLESBORO*   FOG       43  43 100 CALM      30.01F VSB<1/4
HAZARD APT*    CLOUDY    61  54  77 SW12      29.93S
BLACK MTN*       N/A     46  46 100 S9          N/A
PIKEVILLE APT* CLOUDY    63  54  72 SW7       29.91S
BIG SANDY*     CLOUDY    64  55  72 SW17G25   29.89S
MOREHEAD APT*  CLOUDY    63  55  77 SW20G33   29.85S
$$

KYZ035-036-041-042-044-050-067-078-099-032300
...CENTRAL KENTUCKY...

CITY           SKY/WX    TMP DP  RH WIND       PRES   REMARKS
MT STERLING*   CLOUDY    59  55  88 SW17G30   29.84S
FLEMING/MASON* CLOUDY    54  52  94 SW18G28   29.80F
DANVILLE*      CLOUDY    59  55  88 SW15G24   29.87F
RICHMOND*      CLOUDY    57  54  88 S15G23    29.87F
LEXINGTON      CLOUDY    60  56  86 SW16G29   29.82F
FRANKFORT      CLOUDY    60  55  83 SW17G26   29.79F
$$

KYZ091>093-OHZ055-061-077-WVZ005-015-034-035-042-032300
...SOUTHERN OHIO/WEST VIRGINIA...

CITY           SKY/WX    TMP DP  RH WIND       PRES   REMARKS
COVINGTON      HVY RAIN  45  44  97 W12       29.78R VSB 1/4
COLUMBUS       FOG       37  36  93 S7        29.74F VSB 1/2 WCI  32
DAYTON         FOG       42  41  96 SW14      29.73S VSB 1
WILMINGTON     LGT RAIN  41  40  96 SW12      29.74S VSB<1/4
HUNTINGTON     PTSUNNY   58  50  75 SW10      29.82F
CHARLESTON     PTSUNNY   63  51  65 SW22G35   29.83F
PINEVILLE*     CLOUDY    44  43  95 MISG      30.00F
BECKLEY        CLOUDY    44  38  79 SE9       29.95F
BLUEFIELD      LGT RAIN  51  43  74 VRB5      29.99F
$$

VAZ002-007-008-TNZ017-027-036-066-071-032300
...SOUTHWEST VIRGINIA/EAST TENNESSEE...

CITY           SKY/WX    TMP DP  RH WIND       PRES   REMARKS
WISE*          LGT RAIN  46  46 100 SW15      30.00S VSB 1/2
JONESVILLE*    LGT RAIN  39  39 100 CALM      30.05F VSB<1/4
ABINGDON*      CLOUDY    46  42  85 E5        30.02F
BRISTOL        CLOUDY    51  44  77 CALM      30.02F
KNOXVILLE      LGT RAIN  49  46  90 W6        30.04F FOG
OAK RIDGE      LGT RAIN  49  47  93 CALM      30.04F FOG
CROSSVILLE     CLOUDY    54  53  97 S6        30.01F
NASHVILLE      CLOUDY    64  58  80 S14       29.94F
$$

...KEY TO REMARKS...
VSB - VISIBILITY IN MILES
WCI - WIND CHILL INDEX
HX  - HEAT INDEX

$$


USA.gov is the U.S. government's official web portal to all federal, state and local government web resources and services.